When you browse on this site, cookies collect data to enhance your experience and personalize the content and advertising you see.
Visit our Privacy Policy to learn more. By continuing to use the site, you agree to this use of cookies and data.
  • In Denmark
  • List of Countries
  • For 7 days
  • Water Temperature
  • Satellite Maps
  • Weather Map
  • Weather Widgets
  • user-avatar
    Login

    Hourly Weather Knighton

    Today, 19 April, Friday

    Time Temperature Precipitation Wind Pressure Humidity
    00:00 +8°C° 0 mm 2 mps 740 mmHg 92%
    01:00 +7°C° 0 mm 2 mps 740 mmHg 92%
    02:00 +8°C° 0 mm 1 mps 740 mmHg 92%
    03:00 +7°C° 0 mm 1 mps 740 mmHg 92%
    04:00 +7°C° 0 mm 1 mps 740 mmHg 93%
    05:00 +6°C° 0 mm 2 mps 740 mmHg 93%
    06:00 +6°C° 0 mm 2 mps 741 mmHg 93%
    07:00 +8°C° 0 mm 2 mps 741 mmHg 89%
    08:00 +10°C° 0 mm 2 mps 741 mmHg 85%
    09:00 +12°C° 0 mm 2 mps 742 mmHg 81%
    10:00 +14°C° 0 mm 2 mps 742 mmHg 78%
    11:00 +14°C° 0 mm 3 mps 742 mmHg 75%
    12:00 +17°C° 0 mm 3 mps 742 mmHg 72%
    13:00 +18°C° 0 mm 3 mps 742 mmHg 70%
    14:00 +18°C° 0 mm 2 mps 742 mmHg 68%
    15:00 +19°C° 0 mm 2 mps 742 mmHg 66%
    16:00 +18°C° 0 mm 2 mps 742 mmHg 70%
    17:00 +18°C° 0 mm 2 mps 742 mmHg 74%
    18:00 +18°C° 0 mm 1 mps 742 mmHg 78%
    19:00 +16°C° 0 mm 1 mps 743 mmHg 81%
    20:00 +14°C° 0 mm 1 mps 743 mmHg 83%
    21:00 +11°C° 0 mm 0 mps 743 mmHg 86%
    22:00 +11°C° 0 mm 0 mps 743 mmHg 87%
    23:00 +10°C° 0 mm 0 mps 743 mmHg 88%

    Tomorrow, 20 April, Saturday

    Time Temperature Precipitation Wind Pressure Humidity
    00:00 +9°C° 0 mm 0 mps 743 mmHg 90%
    01:00 +9°C° 0 mm 0 mps 743 mmHg 90%
    02:00 +9°C° 0 mm 0 mps 743 mmHg 91%
    03:00 +8°C° 0 mm 0 mps 743 mmHg 91%
    04:00 +8°C° 0 mm 0 mps 743 mmHg 91%
    05:00 +9°C° 0 mm 0 mps 743 mmHg 91%
    06:00 +9°C° 0 mm 0 mps 743 mmHg 91%
    07:00 +11°C° 0 mm 0 mps 744 mmHg 87%
    08:00 +14°C° 0 mm 1 mps 744 mmHg 82%
    09:00 +16°C° 0 mm 1 mps 744 mmHg 77%
    10:00 +18°C° 0 mm 1 mps 744 mmHg 72%
    11:00 +19°C° 0 mm 1 mps 744 mmHg 68%
    12:00 +19°C° 0 mm 2 mps 743 mmHg 63%
    13:00 +19°C° 0 mm 2 mps 743 mmHg 62%
    14:00 +19°C° 0 mm 2 mps 743 mmHg 61%
    15:00 +19°C° 0 mm 2 mps 742 mmHg 59%
    16:00 +20°C° 0 mm 1 mps 742 mmHg 63%
    17:00 +19°C° 0 mm 1 mps 742 mmHg 67%
    18:00 +18°C° 0 mm 1 mps 742 mmHg 71%
    19:00 +15°C° 0 mm 1 mps 741 mmHg 74%
    20:00 +13°C° 0 mm 1 mps 741 mmHg 76%
    21:00 +10°C° 0 mm 0 mps 741 mmHg 79%
    22:00 +10°C° 0 mm 0 mps 741 mmHg 80%
    23:00 +9°C° 0 mm 0 mps 741 mmHg 81%

    Day after tomorrow, 21 April, Sunday

    Time Temperature Precipitation Wind Pressure Humidity
    00:00 +9°C° 0 mm 0 mps 740 mmHg 82%
    01:00 +8°C° 0 mm 0 mps 740 mmHg 84%
    02:00 +8°C° 0 mm 0 mps 739 mmHg 86%
    03:00 +8°C° 0 mm 0 mps 739 mmHg 88%
    04:00 +8°C° 0 mm 0 mps 738 mmHg 89%
    05:00 +8°C° 0 mm 0 mps 738 mmHg 90%
    06:00 +8°C° 0 mm 0 mps 738 mmHg 91%
    07:00 +11°C° 0 mm 1 mps 738 mmHg 86%
    08:00 +13°C° 0 mm 1 mps 737 mmHg 81%
    09:00 +15°C° 0 mm 2 mps 737 mmHg 76%
    10:00 +16°C° 0 mm 2 mps 737 mmHg 73%
    11:00 +17°C° 0 mm 3 mps 736 mmHg 69%
    12:00 +18°C° 0 mm 3 mps 736 mmHg 65%
    13:00 +18°C° 0 mm 3 mps 735 mmHg 64%
    14:00 +18°C° 0 mm 3 mps 734 mmHg 64%
    15:00 +18°C° 0 mm 3 mps 734 mmHg 63%
    16:00 +18°C° 0 mm 3 mps 733 mmHg 67%
    17:00 +17°C° 0 mm 3 mps 733 mmHg 71%
    18:00 +16°C° 0 mm 2 mps 732 mmHg 75%
    19:00 +14°C° 0 mm 2 mps 732 mmHg 78%
    20:00 +12°C° 0 mm 2 mps 732 mmHg 81%
    21:00 +10°C° 0 mm 1 mps 731 mmHg 84%
    22:00 +10°C° 0 mm 1 mps 731 mmHg 85%
    23:00 +10°C° 0 mm 1 mps 730 mmHg 86%

    22 April, Monday

    Time Temperature Precipitation Wind Pressure Humidity
    00:00 +9°C° 0 mm 1 mps 730 mmHg 87%
    01:00 +9°C° 0 mm 1 mps 729 mmHg 89%
    02:00 +8°C° 0 mm 1 mps 728 mmHg 90%
    03:00 +8°C° 0 mm 1 mps 728 mmHg 92%
    04:00 +8°C° 0 mm 1 mps 727 mmHg 93%
    05:00 +7°C° 0 mm 2 mps 727 mmHg 94%
    06:00 +7°C° 0 mm 2 mps 726 mmHg 96%
    07:00 +9°C° 0 mm 2 mps 726 mmHg 90%
    08:00 +11°C° 0 mm 3 mps 726 mmHg 85%
    09:00 +13°C° 0 mm 4 mps 726 mmHg 80%
    10:00 +14°C° 0 mm 5 mps 725 mmHg 75%
    11:00 +16°C° 0 mm 5 mps 725 mmHg 70%
    12:00 +17°C° 0 mm 6 mps 725 mmHg 65%
    13:00 +17°C° 0.1 mm 6 mps 724 mmHg 66%
    14:00 +17°C° 0.1 mm 6 mps 724 mmHg 67%
    15:00 +17°C° 0.1 mm 5 mps 723 mmHg 68%
    16:00 +17°C° 0.3 mm 5 mps 723 mmHg 73%
    17:00 +17°C° 0.3 mm 4 mps 723 mmHg 77%
    18:00 +16°C° 0.3 mm 3 mps 722 mmHg 81%
    19:00 +13°C° 0 mm 3 mps 722 mmHg 84%
    20:00 +12°C° 0 mm 3 mps 722 mmHg 87%
    21:00 +10°C° 0 mm 3 mps 722 mmHg 90%
    22:00 +9°C° 0 mm 3 mps 722 mmHg 91%
    23:00 +8°C° 0 mm 2 mps 721 mmHg 92%

    23 April, Tuesday

    Time Temperature Precipitation Wind Pressure Humidity
    00:00 +8°C° 0 mm 2 mps 721 mmHg 93%
    01:00 +7°C° 0 mm 2 mps 720 mmHg 93%
    02:00 +7°C° 0 mm 2 mps 720 mmHg 94%
    03:00 +7°C° 0 mm 2 mps 719 mmHg 95%
    04:00 +7°C° 0 mm 3 mps 719 mmHg 95%
    05:00 +7°C° 0 mm 3 mps 719 mmHg 95%
    06:00 +7°C° 0 mm 3 mps 719 mmHg 95%
    07:00 +9°C° 0 mm 3 mps 719 mmHg 93%
    08:00 +11°C° 0 mm 4 mps 719 mmHg 91%
    09:00 +12°C° 0 mm 5 mps 719 mmHg 89%
    10:00 +13°C° 0.1 mm 5 mps 719 mmHg 85%
    11:00 +14°C° 0.1 mm 5 mps 719 mmHg 82%
    12:00 +15°C° 0.1 mm 5 mps 719 mmHg 78%
    13:00 +15°C° 0.7 mm 5 mps 719 mmHg 78%
    14:00 +16°C° 0.7 mm 5 mps 719 mmHg 78%
    15:00 +16°C° 0.7 mm 5 mps 719 mmHg 78%
    16:00 +15°C° 0.8 mm 4 mps 719 mmHg 82%
    17:00 +14°C° 0.8 mm 4 mps 718 mmHg 85%
    18:00 +14°C° 0.8 mm 3 mps 718 mmHg 89%
    19:00 +12°C° 0.4 mm 3 mps 718 mmHg 91%
    20:00 +11°C° 0.4 mm 3 mps 719 mmHg 92%
    21:00 +10°C° 0.4 mm 3 mps 719 mmHg 94%
    22:00 +10°C° 0.1 mm 3 mps 719 mmHg 95%
    23:00 +9°C° 0.1 mm 3 mps 719 mmHg 96%

    24 April, Wednesday

    Time Temperature Precipitation Wind Pressure Humidity
    00:00 +9°C° 0.1 mm 3 mps 718 mmHg 98%
    01:00 +9°C° 0.1 mm 3 mps 718 mmHg 97%
    02:00 +9°C° 0.1 mm 3 mps 718 mmHg 97%
    03:00 +10°C° 0.1 mm 3 mps 718 mmHg 97%
    04:00 +9°C° 0 mm 2 mps 718 mmHg 97%
    05:00 +8°C° 0 mm 2 mps 718 mmHg 97%
    06:00 +8°C° 0 mm 1 mps 718 mmHg 96%
    07:00 +8°C° 0 mm 2 mps 719 mmHg 93%
    08:00 +9°C° 0 mm 2 mps 719 mmHg 89%
    09:00 +9°C° 0 mm 3 mps 719 mmHg 85%
    10:00 +10°C° 0 mm 4 mps 720 mmHg 81%
    11:00 +10°C° 0 mm 4 mps 720 mmHg 78%
    12:00 +10°C° 0 mm 5 mps 720 mmHg 74%
    13:00 +11°C° 0.1 mm 6 mps 720 mmHg 72%
    14:00 +11°C° 0.1 mm 7 mps 719 mmHg 71%
    15:00 +12°C° 0.1 mm 7 mps 719 mmHg 69%
    16:00 +11°C° 0.1 mm 7 mps 719 mmHg 73%
    17:00 +10°C° 0.1 mm 6 mps 719 mmHg 78%
    18:00 +9°C° 0.1 mm 5 mps 719 mmHg 82%
    19:00 +8°C° 0 mm 5 mps 719 mmHg 86%
    20:00 +7°C° 0 mm 4 mps 719 mmHg 90%
    21:00 +6°C° 0 mm 4 mps 719 mmHg 94%
    22:00 +5°C° 0 mm 4 mps 719 mmHg 95%
    23:00 +5°C° 0 mm 4 mps 719 mmHg 95%
    Show more